TimeEST,TemperatureF,Dew PointF,Humidity,Sea Level PressureIn,VisibilityMPH,Wind Direction,Wind SpeedMPH,Gust SpeedMPH,PrecipitationIn,Events,Conditions,WindDirDegrees,DateUTC
12:15 AM,5.0,-0.4,78,30.24,10.0,NNW,8.1,-,N/A,,Clear,340,2014-01-03 05:15:00
12:35 AM,5.0,-0.4,78,30.27,10.0,NNW,9.2,-,N/A,,Clear,330,2014-01-03 05:35:00
12:55 AM,5.0,-0.4,78,30.27,10.0,NNW,9.2,-,N/A,,Clear,330,2014-01-03 05:55:00
1:15 AM,3.2,-2.2,78,30.27,10.0,NNW,8.1,-,N/A,,Clear,330,2014-01-03 06:15:00
1:35 AM,1.4,-4.0,78,30.26,10.0,NNW,8.1,-,N/A,,Clear,340,2014-01-03 06:35:00
1:55 AM,3.2,-4.0,72,30.28,10.0,NNW,8.1,-,N/A,,Clear,330,2014-01-03 06:55:00
2:15 AM,1.4,-4.0,78,30.29,10.0,NW,6.9,-,N/A,,Clear,320,2014-01-03 07:15:00
2:35 AM,1.4,-4.0,78,30.30,10.0,NNW,6.9,-,N/A,,Clear,330,2014-01-03 07:35:00
2:55 AM,1.4,-5.8,72,30.32,10.0,NW,6.9,-,N/A,,Clear,320,2014-01-03 07:55:00
3:15 AM,-0.4,-5.8,78,30.34,10.0,NW,6.9,-,N/A,,Clear,320,2014-01-03 08:15:00
3:35 AM,-0.4,-5.8,78,30.34,10.0,NW,6.9,-,N/A,,Clear,310,2014-01-03 08:35:00
3:55 AM,-0.4,-7.6,72,30.34,10.0,NW,6.9,-,N/A,,Clear,310,2014-01-03 08:55:00
4:15 AM,-2.2,-7.6,78,30.33,10.0,NW,5.8,-,N/A,,Clear,320,2014-01-03 09:15:00
4:35 AM,-2.2,-7.6,78,30.34,10.0,WNW,8.1,-,N/A,,Clear,300,2014-01-03 09:35:00
4:55 AM,-2.2,-7.6,78,30.35,10.0,WNW,8.1,-,N/A,,Clear,300,2014-01-03 09:55:00
5:15 AM,-4.0,-7.6,85,30.36,10.0,WNW,6.9,-,N/A,,Clear,300,2014-01-03 10:15:00
5:35 AM,-4.0,-7.6,85,30.36,10.0,WNW,5.8,-,N/A,,Clear,300,2014-01-03 10:35:00
5:55 AM,-4.0,-7.6,85,30.36,10.0,NW,6.9,-,N/A,,Clear,310,2014-01-03 10:55:00
6:15 AM,-4.0,-7.6,85,30.37,10.0,WNW,6.9,-,N/A,,Clear,300,2014-01-03 11:15:00
6:35 AM,-4.0,-7.6,85,30.38,10.0,WNW,8.1,-,N/A,,Clear,300,2014-01-03 11:35:00
6:55 AM,-4.0,-7.6,85,30.39,10.0,WNW,6.9,-,N/A,,Clear,300,2014-01-03 11:55:00
7:15 AM,-4.0,-7.6,85,30.39,10.0,WNW,6.9,-,N/A,,Clear,300,2014-01-03 12:15:00
7:35 AM,-5.8,-9.4,84,30.40,10.0,Calm,Calm,-,N/A,,Clear,0,2014-01-03 12:35:00
7:55 AM,-5.8,-9.4,84,30.40,10.0,West,4.6,-,N/A,,Clear,270,2014-01-03 12:55:00
8:15 AM,-5.8,-7.6,92,30.41,7.0,WSW,3.5,-,N/A,,Clear,250,2014-01-03 13:15:00
8:35 AM,-4.0,-7.6,85,30.41,10.0,Calm,Calm,-,N/A,,Clear,0,2014-01-03 13:35:00
8:55 AM,-4.0,-7.6,85,30.42,10.0,Calm,Calm,-,N/A,,Clear,0,2014-01-03 13:55:00
9:15 AM,-2.2,-5.8,85,30.43,10.0,Calm,Calm,-,N/A,,Clear,0,2014-01-03 14:15:00
9:35 AM,-0.4,-4.0,85,30.45,10.0,WSW,4.6,-,N/A,,Clear,250,2014-01-03 14:35:00
9:55 AM,1.4,-4.0,78,30.44,10.0,West,4.6,-,N/A,,Clear,270,2014-01-03 14:55:00
10:15 AM,1.4,-4.0,78,30.44,10.0,West,3.5,-,N/A,,Clear,270,2014-01-03 15:15:00
10:35 AM,3.2,-4.0,72,30.46,10.0,West,3.5,-,N/A,,Clear,270,2014-01-03 15:35:00
10:55 AM,5.0,-2.2,72,30.45,10.0,West,3.5,-,N/A,,Clear,270,2014-01-03 15:55:00
11:15 AM,5.0,-2.2,72,30.45,10.0,Calm,Calm,-,N/A,,Clear,0,2014-01-03 16:15:00
11:35 AM,8.6,-0.4,67,30.44,10.0,WNW,3.5,-,N/A,,Clear,290,2014-01-03 16:35:00
11:55 AM,8.6,-0.4,67,30.43,10.0,Calm,Calm,-,N/A,,Clear,0,2014-01-03 16:55:00
12:15 PM,8.6,-2.2,62,30.42,10.0,West,3.5,-,N/A,,Clear,270,2014-01-03 17:15:00
12:35 PM,10.4,-2.2,57,30.41,10.0,West,4.6,-,N/A,,Clear,280,2014-01-03 17:35:00
12:55 PM,10.4,-2.2,57,30.40,10.0,Calm,Calm,-,N/A,,Clear,0,2014-01-03 17:55:00
1:15 PM,12.2,-0.4,57,30.39,10.0,Calm,Calm,-,N/A,,Clear,0,2014-01-03 18:15:00
1:35 PM,12.2,-0.4,57,30.39,10.0,WSW,4.6,-,N/A,,Clear,240,2014-01-03 18:35:00
1:55 PM,12.2,-0.4,57,30.39,10.0,WSW,5.8,-,N/A,,Clear,250,2014-01-03 18:55:00
2:15 PM,14.0,-0.4,53,30.39,10.0,SW,3.5,-,N/A,,Clear,220,2014-01-03 19:15:00
2:35 PM,14.0,-0.4,53,30.38,10.0,South,3.5,-,N/A,,Clear,180,2014-01-03 19:35:00
2:55 PM,14.0,-0.4,53,30.37,10.0,South,6.9,-,N/A,,Clear,180,2014-01-03 19:55:00
3:15 PM,14.0,1.4,57,30.38,10.0,SSW,6.9,-,N/A,,Clear,210,2014-01-03 20:15:00
3:35 PM,14.0,1.4,57,30.37,10.0,South,6.9,-,N/A,,Clear,180,2014-01-03 20:35:00
3:55 PM,14.0,1.4,57,30.36,10.0,South,8.1,-,N/A,,Clear,170,2014-01-03 20:55:00
4:15 PM,14.0,1.4,57,30.37,10.0,South,6.9,-,N/A,,Clear,180,2014-01-03 21:15:00
4:35 PM,12.2,-0.4,57,30.36,10.0,South,5.8,-,N/A,,Clear,180,2014-01-03 21:35:00
4:55 PM,12.2,-0.4,57,30.34,10.0,South,6.9,-,N/A,,Scattered Clouds,170,2014-01-03 21:55:00
5:15 PM,10.4,-0.4,62,30.34,10.0,South,5.8,-,N/A,,Scattered Clouds,170,2014-01-03 22:15:00
5:35 PM,12.2,1.4,62,30.34,10.0,South,6.9,-,N/A,,Mostly Cloudy,170,2014-01-03 22:35:00
5:55 PM,12.2,1.4,62,30.33,10.0,South,8.1,-,N/A,,Overcast,170,2014-01-03 22:55:00
6:15 PM,12.2,1.4,62,30.33,10.0,South,9.2,-,N/A,,Overcast,170,2014-01-03 23:15:00
6:35 PM,12.2,1.4,62,30.32,10.0,South,8.1,-,N/A,,Overcast,170,2014-01-03 23:35:00
6:55 PM,14.0,3.2,62,30.31,10.0,South,9.2,-,N/A,,Overcast,170,2014-01-03 23:55:00
7:15 PM,14.0,3.2,62,30.29,10.0,South,11.5,-,N/A,,Overcast,170,2014-01-04 00:15:00
7:35 PM,14.0,3.2,62,30.29,10.0,South,12.7,18.4,N/A,,Overcast,170,2014-01-04 00:35:00
7:55 PM,12.2,3.2,67,30.30,10.0,South,9.2,16.1,N/A,,Scattered Clouds,180,2014-01-04 00:55:00
8:15 PM,12.2,3.2,67,30.28,10.0,South,10.4,16.1,N/A,,Scattered Clouds,180,2014-01-04 01:15:00
8:35 PM,12.2,5.0,73,30.26,10.0,South,12.7,20.7,N/A,,Mostly Cloudy,170,2014-01-04 01:35:00
8:55 PM,12.2,5.0,73,30.25,10.0,South,10.4,-,N/A,,Mostly Cloudy,170,2014-01-04 01:55:00
9:15 PM,12.2,5.0,73,30.25,10.0,South,10.4,-,N/A,,Clear,170,2014-01-04 02:15:00
9:35 PM,12.2,5.0,73,30.24,10.0,South,11.5,19.6,N/A,,Clear,170,2014-01-04 02:35:00
9:55 PM,10.4,5.0,79,30.22,10.0,South,12.7,-,N/A,,Clear,170,2014-01-04 02:55:00
10:15 PM,12.2,5.0,73,30.21,10.0,South,11.5,18.4,N/A,,Clear,170,2014-01-04 03:15:00
10:35 PM,12.2,5.0,73,30.21,10.0,South,10.4,-,N/A,,Clear,180,2014-01-04 03:35:00
10:55 PM,12.2,5.0,73,30.20,10.0,South,10.4,18.4,N/A,,Clear,180,2014-01-04 03:55:00
11:15 PM,12.2,5.0,73,30.19,10.0,South,10.4,18.4,N/A,,Clear,180,2014-01-04 04:15:00
11:35 PM,12.2,5.0,73,30.18,10.0,South,10.4,18.4,N/A,,Clear,180,2014-01-04 04:35:00
11:55 PM,12.2,5.0,73,30.18,10.0,South,10.4,-,N/A,,Clear,170,2014-01-04 04:55:00